TimeCDT,TemperatureF,Dew PointF,Humidity,Sea Level PressureIn,VisibilityMPH,Wind Direction,Wind SpeedMPH,Gust SpeedMPH,PrecipitationIn,Events,Conditions,WindDirDegrees,DateUTC
12:53 AM,35.1,25.0,67,30.06,10.0,WSW,4.6,-,N/A,,Overcast,250,2013-03-23 05:53:00
1:53 AM,35.1,24.1,64,30.05,10.0,Calm,Calm,-,N/A,,Overcast,0,2013-03-23 06:53:00
2:53 AM,36.0,21.0,55,30.04,10.0,NNE,9.2,-,N/A,,Overcast,30,2013-03-23 07:53:00
3:53 AM,35.1,21.9,59,30.03,10.0,ENE,6.9,-,N/A,,Overcast,60,2013-03-23 08:53:00
4:53 AM,35.1,21.0,57,30.03,10.0,NE,9.2,-,N/A,,Overcast,50,2013-03-23 09:53:00
5:53 AM,34.0,21.9,61,30.05,10.0,ENE,8.1,-,N/A,,Overcast,60,2013-03-23 10:53:00
6:53 AM,33.1,23.0,66,30.06,10.0,NE,9.2,-,N/A,,Overcast,50,2013-03-23 11:53:00
7:53 AM,34.0,23.0,64,30.07,10.0,ENE,10.4,-,N/A,,Overcast,70,2013-03-23 12:53:00
8:53 AM,36.0,23.0,59,30.09,10.0,NE,9.2,-,N/A,,Overcast,50,2013-03-23 13:53:00
9:53 AM,39.9,23.0,51,30.09,10.0,ENE,9.2,-,N/A,,Clear,60,2013-03-23 14:53:00
10:53 AM,44.1,23.0,43,30.09,10.0,NE,10.4,-,N/A,,Clear,50,2013-03-23 15:53:00
11:53 AM,45.0,21.0,39,30.07,10.0,NE,6.9,-,N/A,,Clear,50,2013-03-23 16:53:00
12:53 PM,46.9,23.0,39,30.07,10.0,NE,8.1,-,N/A,,Clear,40,2013-03-23 17:53:00
1:53 PM,48.0,21.9,36,30.06,10.0,NE,8.1,17.3,N/A,,Clear,40,2013-03-23 18:53:00
2:53 PM,50.0,21.0,32,30.02,10.0,Variable,5.8,-,N/A,,Clear,0,2013-03-23 19:53:00
3:53 PM,50.0,23.0,35,30.00,10.0,NNE,11.5,-,N/A,,Clear,30,2013-03-23 20:53:00
4:53 PM,48.9,24.1,38,29.97,10.0,NE,12.7,21.9,N/A,,Clear,50,2013-03-23 21:53:00
5:53 PM,46.9,25.0,42,29.97,10.0,ENE,12.7,-,N/A,,Clear,60,2013-03-23 22:53:00
6:53 PM,43.0,24.1,47,29.96,10.0,ENE,12.7,-,N/A,,Clear,60,2013-03-23 23:53:00
7:53 PM,39.9,25.0,55,29.95,10.0,NE,11.5,-,N/A,,Clear,50,2013-03-24 00:53:00
8:53 PM,39.0,24.1,55,29.94,10.0,NE,13.8,-,N/A,,Clear,50,2013-03-24 01:53:00
9:53 PM,37.9,25.0,60,29.96,10.0,NNE,16.1,21.9,N/A,,Clear,30,2013-03-24 02:53:00
10:53 PM,35.1,25.0,67,29.95,10.0,NNE,13.8,-,N/A,,Overcast,30,2013-03-24 03:53:00
11:53 PM,34.0,25.0,70,29.94,10.0,NE,16.1,24.2,N/A,,Overcast,40,2013-03-24 04:53:00